Thomson, GA

7:58 AM EDT on October 15, 2019 (GMT -0400)
Thomson-McDuffie County

Weather History for KHQU - August, 2019

Change the Weather History Date:

Sunday, August 4, 2019

  Actual Average (WUND) Record (WUND)
Temperature  
Mean Temperature 78 °F -  
Max Temperature 84 °F - - (-1)
Min Temperature 72 °F - - (-1)
Cooling Degree Days 13    
Growing Degree Days 28 (Base 50)    
Moisture  
Dew Point 73 °F    
Average Humidity 89    
Maximum Humidity 99    
Minimum Humidity 64    
Precipitation  
Precipitation 1.34 in - - ()
Sea Level Pressure  
Sea Level Pressure 29.98 in    
Wind  
Wind Speed 3 mph (SE)    
Max Wind Speed 12 mph    
Max Gust Speed 20 mph    
Visibility 8 miles    
Events Rain , Thunderstorm    
Averages and records for this station are not official NWS values.
T = Trace of Precipitation, MM = Missing Value Source: NWS Daily Summary

Daily Weather History Graph

Daily Weather History Graph

Search for Another Location

Airport or City:

Astronomy

Aug. 04, 2019 Rise Set
Actual Time 6:44 AM EDT 8:27 PM EDT
Civil Twilight 6:17 AM EDT 8:54 PM EDT
Nautical Twilight 5:44 AM EDT 9:26 PM EDT
Astronomical Twilight 5:10 AM EDT 10:01 PM EDT
Moon 10:38 AM EDT (8/4) 11:18 PM EDT (8/4)
Length of Visible Light 14h 37m
Length of Day
13h 43m
Waxing Crescent, 18% of the Moon is Illuminated
Aug 4
Waxing Crescent
Aug 7
First Quarter
Aug 15
Full
Aug 23
Last Quarter
Aug 30
New

Hourly Weather History & Observations

Time (EDT) Temp. Heat Index Dew Point Humidity Pressure Visibility Wind Dir Wind Speed Gust Speed Precip Events Conditions
12:15 AM 76.8 °F - 71.1 °F 82% 29.99 in 10.0 mi South 3.5 mph - N/A   Overcast
12:35 AM 76.6 °F - 71.6 °F 84% 29.99 in 10.0 mi Calm Calm - N/A   Overcast
12:55 AM 76.5 °F - 71.6 °F 85% 29.99 in 10.0 mi SSW 4.6 mph - N/A   Mostly Cloudy
1:15 AM 77.0 °F - 71.6 °F 83% 29.99 in 10.0 mi SW 5.8 mph - N/A   Scattered Clouds
1:35 AM 76.6 °F - 72.0 °F 85% 29.98 in 10.0 mi South 3.5 mph - N/A   Clear
1:55 AM 76.5 °F - 72.1 °F 86% 29.98 in 10.0 mi Calm Calm - N/A   Scattered Clouds
2:15 AM 76.3 °F - 72.3 °F 87% 29.98 in 10.0 mi SW 3.5 mph - N/A   Mostly Cloudy
2:35 AM 75.9 °F - 72.5 °F 89% 29.98 in 10.0 mi SW 3.5 mph - N/A   Scattered Clouds
2:55 AM 76.3 °F - 72.1 °F 87% 29.97 in 10.0 mi Calm Calm - N/A   Scattered Clouds
3:15 AM 76.3 °F - 72.0 °F 86% 29.98 in 10.0 mi Calm Calm - N/A   Clear
3:35 AM 75.2 °F - 72.1 °F 90% 29.97 in 10.0 mi Calm Calm - N/A   Scattered Clouds
3:55 AM 75.6 °F - 71.8 °F 88% 29.97 in 10.0 mi Calm Calm - N/A   Mostly Cloudy
4:35 AM 75.0 °F - 71.8 °F 90% 29.97 in 10.0 mi ESE 4.6 mph - N/A   Scattered Clouds
4:55 AM 74.8 °F - 71.4 °F 89% 29.97 in 10.0 mi Calm Calm - N/A   Scattered Clouds
5:15 AM 74.5 °F - 71.8 °F 91% 29.98 in 10.0 mi Calm Calm - N/A   Mostly Cloudy
5:35 AM 74.3 °F - 71.8 °F 92% 29.98 in 10.0 mi SSE 3.5 mph - N/A   Mostly Cloudy
5:55 AM 74.1 °F - 71.8 °F 92% 29.98 in 10.0 mi SE 3.5 mph - N/A   Mostly Cloudy
6:15 AM 74.1 °F - 72.0 °F 93% 29.98 in 10.0 mi SSE 4.6 mph - N/A   Overcast
6:35 AM 74.5 °F - 71.6 °F 91% 29.98 in 7.0 mi SSE 4.6 mph - N/A Rain Rain
6:55 AM 73.6 °F - 72.3 °F 96% 29.98 in 7.0 mi Calm Calm - N/A Rain , Thunderstorm Light Thunderstorms and Rain
7:15 AM 73.9 °F - 72.9 °F 96% 29.98 in 10.0 mi Calm Calm - N/A Thunderstorm Overcast
7:35 AM 74.1 °F - 73.0 °F 96% 29.99 in 10.0 mi Calm Calm - N/A Rain Light Rain
7:55 AM 73.8 °F - 73.2 °F 98% 30.00 in 10.0 mi North 5.8 mph - 0.01 in Rain , Thunderstorm Light Thunderstorms and Rain
8:15 AM 73.8 °F - 73.0 °F 98% 30.00 in 3.5 mi NW 9.2 mph - 0.06 in Rain , Thunderstorm Heavy Thunderstorms and Rain
8:35 AM 73.2 °F - 72.7 °F 98% 30.02 in 1.0 mi NW 11.5 mph 19.6 mph 0.98 in Rain , Thunderstorm Heavy Thunderstorms and Rain
8:55 AM 73.0 °F - 72.5 °F 98% 30.02 in 4.0 mi Calm Calm - 1.17 in Rain , Thunderstorm Thunderstorms and Rain
9:15 AM 72.9 °F - 72.5 °F 99% 30.02 in 2.5 mi South 3.5 mph - 0.03 in Rain , Thunderstorm Thunderstorms and Rain
9:35 AM 72.7 °F - 72.3 °F 99% 30.02 in 5.0 mi SE 3.5 mph - 0.06 in Rain , Thunderstorm Thunderstorms and Rain
9:55 AM 72.7 °F - 72.3 °F 99% 30.02 in 5.0 mi Calm Calm - 0.09 in Rain , Thunderstorm Light Thunderstorms and Rain
10:15 AM 72.5 °F - 72.3 °F 99% 30.03 in 7.0 mi SSW 4.6 mph - N/A Rain , Thunderstorm Light Thunderstorms and Rain
10:35 AM 72.3 °F - 71.8 °F 98% 30.04 in 10.0 mi SSE 5.8 mph - N/A Thunderstorm Mostly Cloudy
10:55 AM 72.3 °F - 71.6 °F 98% 30.03 in 5.0 mi SE 9.2 mph - 0.01 in Rain , Thunderstorm Rain
11:15 AM 72.7 °F - 72.1 °F 98% 30.03 in 10.0 mi ENE 5.8 mph - N/A Rain , Thunderstorm Light Thunderstorms and Rain
11:35 AM 73.6 °F - 72.1 °F 95% 30.04 in 10.0 mi Calm Calm - N/A Thunderstorm Overcast
11:55 AM 74.1 °F - 72.1 °F 94% 30.04 in 10.0 mi Calm Calm - N/A   Overcast
12:15 PM 74.5 °F - 72.0 °F 92% 30.04 in 10.0 mi ESE 3.5 mph - N/A   Overcast
12:35 PM 75.7 °F - 72.9 °F 91% 30.03 in 10.0 mi ESE 3.5 mph - N/A   Overcast
12:55 PM 76.5 °F - 73.0 °F 89% 30.03 in 10.0 mi North 3.5 mph - N/A   Overcast
1:15 PM 78.4 °F - 72.7 °F 82% 30.02 in 10.0 mi NE 3.5 mph - N/A   Mostly Cloudy
1:35 PM 80.1 °F 84.2 °F 72.9 °F 79% 30.01 in 10.0 mi East 5.8 mph - N/A   Mostly Cloudy
1:55 PM 81.9 °F 87.5 °F 73.8 °F 76% 30.00 in 10.0 mi ENE 5.8 mph - N/A   Mostly Cloudy
2:15 PM 82.8 °F 88.4 °F 72.9 °F 72% 29.98 in 10.0 mi East 5.8 mph - N/A   Mostly Cloudy
2:35 PM 82.4 °F 87.4 °F 72.3 °F 71% 29.98 in 10.0 mi East 6.9 mph - N/A   Mostly Cloudy
2:55 PM 82.6 °F 88.1 °F 72.7 °F 72% 29.98 in 10.0 mi NE 3.5 mph - N/A   Mostly Cloudy
3:15 PM 84.4 °F 91.0 °F 73.0 °F 69% 29.95 in 10.0 mi ENE 4.6 mph - N/A   Mostly Cloudy
3:35 PM 84.9 °F 90.4 °F 71.6 °F 64% 29.94 in 10.0 mi NNE 3.5 mph - N/A   Scattered Clouds
3:55 PM 83.5 °F 88.8 °F 72.0 °F 68% 29.94 in 10.0 mi ESE 3.5 mph - N/A   Clear
4:15 PM 84.7 °F 92.5 °F 74.5 °F 71% 29.93 in 10.0 mi South 3.5 mph - N/A   Mostly Cloudy
4:35 PM 83.5 °F 88.8 °F 72.0 °F 68% 29.93 in 10.0 mi Calm Calm - N/A   Mostly Cloudy
4:55 PM 83.1 °F 89.2 °F 73.4 °F 72% 29.93 in 10.0 mi Calm Calm - N/A   Mostly Cloudy
5:15 PM 80.8 °F 85.8 °F 73.6 °F 79% 29.94 in 10.0 mi SW 6.9 mph - N/A   Overcast
5:35 PM 81.1 °F 86.0 °F 73.0 °F 76% 29.93 in 10.0 mi South 3.5 mph - N/A   Overcast
5:55 PM 81.5 °F 86.9 °F 73.6 °F 77% 29.94 in 10.0 mi Calm Calm - N/A Thunderstorm Mostly Cloudy
6:15 PM 80.2 °F 84.7 °F 73.4 °F 80% 29.94 in 10.0 mi Calm Calm - N/A   Scattered Clouds
6:35 PM 81.1 °F 87.0 °F 74.8 °F 81% 29.94 in 10.0 mi NNW 4.6 mph - N/A Rain , Thunderstorm Light Thunderstorms and Rain
6:55 PM 78.1 °F - 75.9 °F 93% 29.95 in 10.0 mi NNW 3.5 mph - 0.01 in Rain , Thunderstorm Light Thunderstorms and Rain
7:15 PM 76.5 °F - 75.2 °F 96% 29.95 in 7.0 mi North 5.8 mph - 0.01 in Rain , Thunderstorm Thunderstorms and Rain
7:55 PM 75.0 °F - 74.5 °F 98% 29.95 in 4.0 mi WNW 4.6 mph - 0.04 in Rain Light Rain
8:15 PM 74.3 °F - 73.4 °F 97% 29.96 in 10.0 mi North 3.5 mph - N/A Rain Light Rain
8:35 PM 73.8 °F - 73.2 °F 98% 29.96 in 7.0 mi Calm Calm - N/A Rain Light Rain
8:55 PM 73.6 °F - 73.2 °F 99% 29.96 in 7.0 mi SSE 3.5 mph - N/A Rain Light Rain
9:15 PM 73.2 °F - 72.9 °F 99% 29.95 in 5.0 mi Calm Calm - N/A   Scattered Clouds
9:35 PM 73.2 °F - 73.0 °F 99% 29.97 in 3.0 mi Calm Calm - 0.01 in   Clear
9:55 PM 73.6 °F - 73.4 °F 99% 29.97 in 5.0 mi SE 4.6 mph - 0.01 in   Mostly Cloudy
10:15 PM 73.9 °F - 73.4 °F 98% 29.98 in 10.0 mi ESE 3.5 mph - N/A   Overcast
10:35 PM 73.4 °F - 73.0 °F 99% 29.98 in 5.0 mi Calm Calm - N/A   Overcast
10:55 PM 73.6 °F - 73.4 °F 99% 29.98 in 7.0 mi Calm Calm - N/A   Mostly Cloudy
11:15 PM 73.6 °F - 73.2 °F 99% 29.98 in 7.0 mi Calm Calm - N/A   Scattered Clouds
11:35 PM 73.8 °F - 73.6 °F 99% 29.99 in 7.0 mi ESE 4.6 mph - N/A   Mostly Cloudy
11:55 PM 74.1 °F - 73.8 °F 99% 29.99 in 7.0 mi ENE 5.8 mph - N/A   Overcast